This demonstration page uses our WeatherBlox Daily Observations layout. Learn more.

Left ArrowRight Arrow

38.20091, -84.87328

Hourly Observations for September 4, 2016

Temp ( °F °C ) Dew Point ( °F °C ) Humidity (%) Winds ( mph kmh ) Pressure ( in mb ) Visibility ( mi km ) Precip ( " mm )
12:53 am 00:53 Clear 62 16.7 56 13.3 80 80 Calm 30.13 1020 10 16 0.00 0.00
1:53 am 01:53 Clear 59 15 55 12.8 87 87 Calm 30.14 1021 10 16 0.00 0.00
2:53 am 02:53 Clear 59 15 55 12.8 87 87 Calm 30.13 1020 10 16 0.00 0.00
3:53 am 03:53 Clear 56 13.3 53 11.7 90 90 N 3 6 30.13 1020 10 16 0.00 0.00
4:53 am 04:53 Clear 56 13.3 53 11.7 90 90 Calm 30.14 1021 10 16 0.00 0.00
5:53 am 05:53 Clear 57 13.9 53 11.7 87 87 Calm 30.15 1021 10 16 0.00 0.00
6:53 am 06:53 Clear 57 13.9 53 11.7 87 87 Calm 30.16 1021 9 14 0.00 0.00
7:53 am 07:53 Sunny 58 14.4 54 12.2 87 87 Calm 30.18 1022 10 16 0.00 0.00
8:53 am 08:53 Sunny 64 17.8 57 13.9 78 78 E 3 6 30.19 1022 10 16 0.00 0.00
9:53 am 09:53 Sunny 70 21.1 58 14.4 66 66 E 6 9 30.19 1022 10 16 0.00 0.00
10:53 am 10:53 Sunny 75 23.9 59 15 58 58 ENE 5 7 30.19 1023 10 16 0.00 0.00
11:53 am 11:53 Sunny 80 26.7 59 15 49 49 E 7 11 30.19 1022 10 16 0.00 0.00
12:53 pm 12:53 Sunny 83 28.3 56 13.3 40 40 VRB 7 11 30.18 1022 10 16 0.00 0.00
1:53 pm 13:53 Sunny 84 28.9 57 13.9 40 40 ESE 3 6 30.16 1022 10 16 0.00 0.00
2:53 pm 14:53 Sunny 85 29.4 57 13.9 39 39 ESE 6 9 30.15 1021 10 16 0.00 0.00
3:53 pm 15:53 Partly Cloudy 86 30 58 14.4 39 39 ESE 6 9 30.14 1021 10 16 0.00 0.00
4:53 pm 16:53 Sunny 85 29.4 57 13.9 39 39 Calm 30.13 1020 10 16 0.00 0.00
5:53 pm 17:53 Sunny 86 30 59 15 40 40 NNE 6 9 30.13 1020 10 16 0.00 0.00
6:53 pm 18:53 Sunny 84 28.9 59 15 43 43 NNE 6 9 30.13 1020 10 16 0.00 0.00
7:53 pm 19:53 Sunny 81 27.2 59 15 47 47 NE 5 7 30.14 1021 10 16 0.00 0.00
8:53 pm 20:53 Clear 72 22.2 63 17.2 73 73 Calm 30.14 1021 10 16 0.00 0.00
9:53 pm 21:53 Clear 70 21.1 62 16.7 76 76 Calm 30.16 1021 10 16 0.00 0.00
10:53 pm 22:53 Clear 69 20.6 61 16.1 76 76 E 3 6 30.17 1022 10 16 0.00 0.00
11:53 pm 23:53 Clear 67 19.4 60 15.6 79 79 Calm 30.17 1022 10 16 0.00 0.00

Powered by AerisWeather